Location: Manchester NH
(43.0000°N, 71.5000°W)
Time: 13:56:40
(UTC-05:00)

BlueWalker 3 - Visible Passes

Search period start: 09 December 2022 00:00
Search period end: 19 December 2022 00:00
Orbit: 501 x 518 km, 53.2° (Epoch: 09 December)

Date Brightness Start Highest point End Pass type
(mag) Time Alt. Az. Time Alt. Az. Time Alt. Az.
09 Dec 2.8 16:52:10 10° NW 16:55:44 32° NNE 16:59:15 10° E visible
09 Dec 2.7 18:30:45 10° WNW 18:34:13 50° WSW 18:34:13 50° WSW visible
10 Dec 2.8 18:12:20 10° WNW 18:16:07 48° SW 18:17:27 33° S visible
11 Dec 3.0 17:53:56 10° WNW 17:57:40 45° SW 18:01:04 12° SSE visible
12 Dec 3.2 17:35:31 10° WNW 17:39:14 42° SW 17:42:53 10° SSE visible
13 Dec 3.4 17:17:07 10° WNW 17:20:46 39° SW 17:24:24 10° SSE visible
14 Dec 3.7 16:58:42 10° WNW 17:02:19 37° SW 17:05:54 10° SSE visible
15 Dec 3.9 16:40:17 10° WNW 16:43:51 34° SW 16:47:23 10° SSE visible
